Tracking 21045 objects as of 4-Aug-2020
HD Live streaming from Space Station
objects crossing your sky now

AMOS 17

Track AMOS 17 now!
AMOS 17 is classified as:


NORAD ID: 44479
Int'l Code: 2019-050A
Perigee: 35,783.8 km
Apogee: 35,804.0 km
Inclination: 0.1 °
Period: 1,436.1 minutes
Semi major axis: 42164 km
RCS: Unknown
Launch date: August 6, 2019
Source: Israel (ISRA)
Launch site: AIR FORCE EASTERN TEST RANGE (AFETR)
aabbcc
Your satellite tracking list
Your tracking list is empty




NASA's NSSDC Master Catalog

Two Line Element Set (TLE):
1 44479U 19050A   20217.07884553  .00000091  00000-0  00000+0 0  9994
2 44479   0.0546 269.7851 0002394 229.3579 219.3171  1.00271326  3704
Source of the keplerian elements: AFSPC